Location: Madrid
(40.4000°N, 3.6830°W)
Time: 21:34:15
(UTC+01:00)

N. Korean satellite - Visible Passes

Search period start: 24 February 2020 00:00
Search period end: 05 March 2020 00:00
Orbit: 456 x 505 km, 97.2° (Epoch: 24 February)

Date Brightness Start Highest point End Pass type
(mag) Time Alt. Az. Time Alt. Az. Time Alt. Az.
24 Feb 8.8 06:27:42 10° NE 06:31:00 29° E 06:34:15 10° SSE visible
25 Feb 9.9 06:03:10 10° ENE 06:05:18 15° E 06:07:25 10° SE visible
26 Feb 6.5 07:09:37 10° N 07:13:20 74° WNW 07:16:58 10° SSW visible
27 Feb 7.7 06:44:10 10° NNE 06:47:47 49° E 06:51:20 10° S visible
28 Feb 9.2 06:19:07 10° NE 06:22:08 23° E 06:25:05 10° SSE visible
29 Feb 10.2 05:55:09 10° ENE 05:56:23 11° E 05:57:36 10° ESE visible
01 Mar 6.7 07:00:47 10° NNE 07:04:29 85° E 07:08:07 10° S visible
02 Mar 8.3 06:35:27 10° NNE 06:38:54 37° E 06:42:17 10° SSE visible
03 Mar 9.7 06:10:37 10° NE 06:13:12 18° E 06:15:46 10° SE visible
